Overview Statistics Trail Chart Weather Telemetry Raw packets
 

This is the latest recevied weather packets stored in our database for station/object IZ5RIE-13. If no packets are shown the sender has not sent any weather packets the latest 10 day(s).

<< 12 13 14 15 16 17 18 >>
Time Temp. Humidity Pressure Rain* Wind** Luminosity Snow
1788463815 26.67° C 100% 1019.5 hPa - - - -
1788462915 27.22° C 100% 1019.5 hPa - - - -
1788462015 27.22° C 100% 1019.3 hPa - - - -
1788461115 27.22° C 100% 1019.2 hPa - - - -
1788460214 27.22° C 100% 1018.9 hPa - - - -
1788459314 27.78° C 100% 1018.8 hPa - - - -
1788458414 27.78° C 100% 1018.6 hPa - - - -
1788457514 28.33° C 100% 1018.5 hPa - - - -
1788456613 29.44° C 100% 1018.3 hPa - - - -
1788455713 31.11° C 100% 1018.6 hPa - - - -
1788454813 33.33° C 100% 1018.6 hPa - - - -
1788453913 35° C 88% 1018.5 hPa - - - -
1788453013 35.56° C 94% 1018.7 hPa - - - -
1788452112 36.11° C 91% 1018.9 hPa - - - -
1788451212 36.67° C 94% 1018.7 hPa - - - -
1788450312 36.11° C 100% 1018.7 hPa - - - -
1788449411 35° C 100% 1018.8 hPa - - - -
1788448511 35° C 100% 1018.8 hPa - - - -
1788447610 34.44° C 100% 1018.8 hPa - - - -
1788446710 34.44° C 100% 1018.8 hPa - - - -
1788445810 34.44° C 100% 1018.7 hPa - - - -
1788444909 33.89° C 100% 1018.9 hPa - - - -
1788444008 33.89° C 100% 1018.9 hPa - - - -
1788443112 32.78° C 100% 1019 hPa - - - -
1788442212 32.22° C 100% 1019.1 hPa - - - -

* Rain since midnight (hover to see other rain measurements)
** Current wind speed in m/s (hover to see current wind gust speed)